FLI432 EGKK-EKVG

Flight info

Callsign FLI432
Flight time 1h 48m
Altitude 38000
Route KENET DCT CESQA DCT BELOX DCT ZOFAT DCT RUGID DCT ADASI DCT NALAN
Aircraft A20N/M-SDE2E3FGHIRWXY/LB1

Departure

Time 2026-05-07 11:00
Airport London Gatwick Airport (EGKK)

Arrival

Time 2026-05-07 12:49
Airport Vágar Airport (EKVG)
Time Latitude Longitude Altitude Speed Heading
2026-05-07 10:31 51.15478 -0.17029 200 ft 0 kts 347°
2026-05-07 10:48 51.15465 -0.17024 200 ft 2 kts 347°
2026-05-07 10:48 51.15450 -0.17019 200 ft 1 kts 347°
2026-05-07 10:49 51.15441 -0.17015 200 ft 2 kts 330°
2026-05-07 10:49 51.15431 -0.16997 200 ft 2 kts 289°
2026-05-07 10:49 51.15429 -0.16980 200 ft 0 kts 262°
2026-05-07 10:49 51.15431 -0.16969 200 ft 1 kts 257°
2026-05-07 10:50 51.15431 -0.16968 200 ft 0 kts 257°
2026-05-07 10:52 51.15431 -0.16972 200 ft 1 kts 258°
2026-05-07 10:52 51.15428 -0.16994 200 ft 2 kts 258°
2026-05-07 10:52 51.15422 -0.17037 200 ft 4 kts 259°
2026-05-07 10:53 51.15414 -0.17102 200 ft 6 kts 258°
2026-05-07 10:53 51.15394 -0.17183 200 ft 8 kts 244°
2026-05-07 10:53 51.15368 -0.17281 200 ft 10 kts 250°
2026-05-07 10:53 51.15322 -0.17369 200 ft 11 kts 211°
2026-05-07 10:54 51.15291 -0.17485 200 ft 12 kts 258°
2026-05-07 10:54 51.15272 -0.17630 200 ft 13 kts 257°
2026-05-07 10:54 51.15250 -0.17784 200 ft 15 kts 257°
2026-05-07 10:54 51.15226 -0.17962 200 ft 17 kts 257°
2026-05-07 10:55 51.15199 -0.18162 200 ft 19 kts 259°
2026-05-07 10:55 51.15171 -0.18381 200 ft 21 kts 259°
2026-05-07 10:55 51.15145 -0.18611 200 ft 20 kts 257°
2026-05-07 10:55 51.15113 -0.18832 200 ft 20 kts 257°
2026-05-07 10:56 51.15083 -0.19050 200 ft 20 kts 258°
2026-05-07 10:56 51.15054 -0.19268 200 ft 19 kts 258°
2026-05-07 10:56 51.15025 -0.19480 200 ft 19 kts 258°
2026-05-07 10:56 51.14995 -0.19698 200 ft 20 kts 257°
2026-05-07 10:57 51.14963 -0.19920 201 ft 20 kts 257°
2026-05-07 10:57 51.14933 -0.20144 201 ft 20 kts 258°
2026-05-07 10:57 51.14902 -0.20374 201 ft 22 kts 257°
2026-05-07 10:57 51.14869 -0.20620 202 ft 22 kts 258°
2026-05-07 10:58 51.14835 -0.20862 202 ft 22 kts 258°
2026-05-07 10:58 51.14804 -0.21088 203 ft 16 kts 257°
2026-05-07 10:58 51.14770 -0.21264 204 ft 16 kts 257°
2026-05-07 10:58 51.14733 -0.21401 204 ft 12 kts 202°
2026-05-07 10:59 51.14654 -0.21353 204 ft 13 kts 144°
2026-05-07 10:59 51.14561 -0.21295 204 ft 15 kts 146°
2026-05-07 10:59 51.14526 -0.21117 203 ft 30 kts 77°
2026-05-07 10:59 51.14629 -0.20372 202 ft 105 kts 78°
2026-05-07 11:00 51.14835 -0.18907 218 ft 161 kts 77°
2026-05-07 11:00 51.15087 -0.17127 806 ft 165 kts 79°
2026-05-07 11:00 51.15308 -0.15359 1532 ft 167 kts 79°
2026-05-07 11:00 51.15551 -0.13487 2054 ft 180 kts 79°
2026-05-07 11:01 51.15807 -0.11500 2639 ft 190 kts 78°
2026-05-07 11:01 51.16115 -0.09383 3187 ft 203 kts 78°
2026-05-07 11:01 51.16547 -0.07133 3679 ft 223 kts 66°
2026-05-07 11:01 51.17365 -0.04958 4287 ft 238 kts 51°
2026-05-07 11:02 51.18454 -0.02888 4815 ft 257 kts 52°
2026-05-07 11:02 51.19589 -0.00571 5027 ft 266 kts 53°
2026-05-07 11:02 51.20727 0.01786 5009 ft 266 kts 53°
2026-05-07 11:02 51.21856 0.04122 4989 ft 269 kts 53°
2026-05-07 11:03 51.23112 0.06449 5299 ft 284 kts 39°
2026-05-07 11:03 51.24874 0.07662 6490 ft 278 kts
2026-05-07 11:03 51.26745 0.07293 7514 ft 278 kts 344°
2026-05-07 11:03 51.28614 0.06438 8398 ft 283 kts 345°
2026-05-07 11:04 51.30537 0.05602 9300 ft 287 kts 345°
2026-05-07 11:04 51.32472 0.04817 10134 ft 292 kts 346°
2026-05-07 11:04 51.34476 0.04043 10817 ft 303 kts 346°
2026-05-07 11:04 51.36607 0.03247 11283 ft 321 kts 347°
2026-05-07 11:05 51.38820 0.02437 11698 ft 338 kts 347°
2026-05-07 11:05 51.41155 0.01590 12327 ft 347 kts 347°
2026-05-07 11:05 51.43549 0.00725 13147 ft 350 kts 347°
2026-05-07 11:05 51.45911 -0.00127 13922 ft 353 kts 347°
2026-05-07 11:06 51.48315 -0.00996 14663 ft 357 kts 347°
2026-05-07 11:06 51.50741 -0.01872 15382 ft 360 kts 347°
2026-05-07 11:06 51.53201 -0.02762 16086 ft 363 kts 347°
2026-05-07 11:06 51.55682 -0.03659 16792 ft 367 kts 347°
2026-05-07 11:07 51.58170 -0.04560 17455 ft 371 kts 346°
2026-05-07 11:07 51.60708 -0.05480 18097 ft 376 kts 346°
2026-05-07 11:07 51.63263 -0.06407 18720 ft 380 kts 346°
2026-05-07 11:07 51.65866 -0.07354 19334 ft 385 kts 346°
2026-05-07 11:08 51.68500 -0.08313 19955 ft 389 kts 346°
2026-05-07 11:08 51.71130 -0.09272 20556 ft 391 kts 346°
2026-05-07 11:08 51.73742 -0.10423 21136 ft 395 kts 340°
2026-05-07 11:08 51.76301 -0.12071 21710 ft 397 kts 334°
2026-05-07 11:09 51.78760 -0.14181 22270 ft 400 kts 329°
2026-05-07 11:09 51.81146 -0.16440 22806 ft 404 kts 328°
2026-05-07 11:09 51.83554 -0.18762 23332 ft 407 kts 328°
2026-05-07 11:09 51.86016 -0.21135 23851 ft 411 kts 328°
2026-05-07 11:10 51.88473 -0.23498 24349 ft 414 kts 329°
2026-05-07 11:10 51.90964 -0.25888 24836 ft 417 kts 329°
2026-05-07 11:10 51.93448 -0.28270 25311 ft 420 kts 329°
2026-05-07 11:10 51.95992 -0.30709 25784 ft 423 kts 329°
2026-05-07 11:11 51.98550 -0.33166 26250 ft 426 kts 329°
2026-05-07 11:11 52.01109 -0.35626 26701 ft 429 kts 329°
2026-05-07 11:11 52.03687 -0.38107 27151 ft 432 kts 329°
2026-05-07 11:11 52.06251 -0.40580 27576 ft 435 kts 329°
2026-05-07 11:12 52.08881 -0.43120 27999 ft 438 kts 329°
2026-05-07 11:12 52.11513 -0.45662 28408 ft 441 kts 330°
2026-05-07 11:12 52.14171 -0.48234 28859 ft 442 kts 330°
2026-05-07 11:12 52.16813 -0.50793 29369 ft 441 kts 330°
2026-05-07 11:13 52.19441 -0.53344 29898 ft 439 kts 330°
2026-05-07 11:13 52.22086 -0.55915 30438 ft 437 kts 330°
2026-05-07 11:13 52.24691 -0.58444 30959 ft 436 kts 330°
2026-05-07 11:13 52.27281 -0.60965 31500 ft 435 kts 330°
2026-05-07 11:14 52.29867 -0.63487 32048 ft 434 kts 330°
2026-05-07 11:14 52.32467 -0.66029 32585 ft 432 kts 329°
2026-05-07 11:14 52.35051 -0.68559 33102 ft 431 kts 329°
2026-05-07 11:14 52.37624 -0.71080 33562 ft 429 kts 329°
2026-05-07 11:15 52.40167 -0.73572 34000 ft 428 kts 329°
2026-05-07 11:15 52.42745 -0.76103 34428 ft 427 kts 329°
2026-05-07 11:15 52.45289 -0.78605 34841 ft 427 kts 329°
2026-05-07 11:15 52.47827 -0.81106 35212 ft 426 kts 329°
2026-05-07 11:16 52.50347 -0.83593 35569 ft 425 kts 330°
2026-05-07 11:16 52.52897 -0.86115 35919 ft 424 kts 330°
2026-05-07 11:16 52.55396 -0.88588 36249 ft 424 kts 330°
2026-05-07 11:16 52.57940 -0.91110 36456 ft 424 kts 329°
2026-05-07 11:17 52.60473 -0.93622 36633 ft 425 kts 329°
2026-05-07 11:17 52.62997 -0.96126 36802 ft 425 kts 329°
2026-05-07 11:17 52.65545 -0.98659 36973 ft 425 kts 329°
2026-05-07 11:17 52.68073 -1.01178 37111 ft 426 kts 329°
2026-05-07 11:18 52.70616 -1.03716 37254 ft 427 kts 329°
2026-05-07 11:18 52.73156 -1.06253 37398 ft 427 kts 329°
2026-05-07 11:18 52.75686 -1.08782 37536 ft 428 kts 329°
2026-05-07 11:18 52.78225 -1.11323 37659 ft 428 kts 329°
2026-05-07 11:19 52.80777 -1.13879 37772 ft 430 kts 329°
2026-05-07 11:19 52.83311 -1.16423 37887 ft 431 kts 329°
2026-05-07 11:19 52.85902 -1.19029 38006 ft 431 kts 329°
2026-05-07 11:19 52.88440 -1.21586 38074 ft 433 kts 328°
2026-05-07 11:20 52.93599 -1.26797 38083 ft 433 kts 328°
2026-05-07 11:20 52.98737 -1.31998 38088 ft 433 kts 328°
2026-05-07 11:21 53.03877 -1.37209 38090 ft 433 kts 328°
2026-05-07 11:21 53.09000 -1.42423 38091 ft 433 kts 328°
2026-05-07 11:22 53.14118 -1.47649 38089 ft 433 kts 328°
2026-05-07 11:22 53.19247 -1.52903 38087 ft 433 kts 328°
2026-05-07 11:23 53.24385 -1.58182 38084 ft 433 kts 328°
2026-05-07 11:23 53.29492 -1.63442 38081 ft 433 kts 328°
2026-05-07 11:24 53.34615 -1.68727 38079 ft 432 kts 327°
2026-05-07 11:24 53.39747 -1.74043 38078 ft 435 kts 327°
2026-05-07 11:25 53.44941 -1.79440 38079 ft 444 kts 327°
2026-05-07 11:25 53.50238 -1.84952 38078 ft 451 kts 327°
2026-05-07 11:26 53.55602 -1.90546 38076 ft 456 kts 327°
2026-05-07 11:26 53.61132 -1.95669 38070 ft 458 kts 339°
2026-05-07 11:27 53.67277 -1.98636 38076 ft 458 kts 345°
2026-05-07 11:27 53.73458 -2.01298 38078 ft 458 kts 345°
2026-05-07 11:28 53.79610 -2.04005 38079 ft 458 kts 345°
2026-05-07 11:28 53.85753 -2.06747 38079 ft 458 kts 345°
2026-05-07 11:29 53.91935 -2.09528 38080 ft 458 kts 345°
2026-05-07 11:29 53.98087 -2.12308 38080 ft 458 kts 345°
2026-05-07 11:30 54.04216 -2.15087 38082 ft 458 kts 345°
2026-05-07 11:30 54.10388 -2.17894 38082 ft 458 kts 345°
2026-05-07 11:31 54.16540 -2.20702 38081 ft 458 kts 345°
2026-05-07 11:31 54.22599 -2.23474 38076 ft 441 kts 345°
2026-05-07 11:32 54.28305 -2.26093 38053 ft 410 kts 345°
2026-05-07 11:32 54.31017 -2.27341 38053 ft 395 kts 344°
2026-05-07 11:32 54.33603 -2.28532 38057 ft 383 kts 344°
2026-05-07 11:33 54.36191 -2.29728 38066 ft 390 kts 344°
2026-05-07 11:33 54.41505 -2.32187 38067 ft 403 kts 344°
2026-05-07 11:34 54.47038 -2.34752 38066 ft 417 kts 344°
2026-05-07 11:34 54.52694 -2.37380 38063 ft 429 kts 344°
2026-05-07 11:35 54.58541 -2.40102 38057 ft 440 kts 344°
2026-05-07 11:35 54.64503 -2.42890 38050 ft 450 kts 344°
2026-05-07 11:36 54.70596 -2.45748 38043 ft 456 kts 344°
2026-05-07 11:36 54.76683 -2.48608 38039 ft 457 kts 344°
2026-05-07 11:37 54.82817 -2.51499 38035 ft 457 kts 344°
2026-05-07 11:37 54.88928 -2.54393 38030 ft 457 kts 344°
2026-05-07 11:38 54.95068 -2.57310 38025 ft 457 kts 343°
2026-05-07 11:38 55.01202 -2.60233 38021 ft 457 kts 343°
2026-05-07 11:39 55.07310 -2.63153 38018 ft 457 kts 343°
2026-05-07 11:39 55.13456 -2.66099 38015 ft 456 kts 342°
2026-05-07 11:40 55.19528 -2.69020 38013 ft 456 kts 342°
2026-05-07 11:40 55.25631 -2.71964 38012 ft 456 kts 342°
2026-05-07 11:41 55.31732 -2.74917 38011 ft 456 kts 342°
2026-05-07 11:41 55.37846 -2.77885 38010 ft 455 kts 342°
2026-05-07 11:42 55.43926 -2.80847 38009 ft 455 kts 342°
2026-05-07 11:42 55.50005 -2.83819 38008 ft 455 kts 342°
2026-05-07 11:43 55.56096 -2.86806 38005 ft 455 kts 342°
2026-05-07 11:43 55.62208 -2.89812 38002 ft 455 kts 342°
2026-05-07 11:44 55.68310 -2.92823 37996 ft 456 kts 342°
2026-05-07 11:44 55.74387 -2.95831 37989 ft 456 kts 342°
2026-05-07 11:45 55.80479 -2.98857 37983 ft 456 kts 342°
2026-05-07 11:45 55.86575 -3.01896 37980 ft 456 kts 342°
2026-05-07 11:46 55.92624 -3.04919 37979 ft 456 kts 342°
2026-05-07 11:46 55.98744 -3.07987 37980 ft 456 kts 342°
2026-05-07 11:47 56.04791 -3.11034 37982 ft 456 kts 342°
2026-05-07 11:47 56.10872 -3.14106 37977 ft 456 kts 342°
2026-05-07 11:48 56.16985 -3.17197 37971 ft 456 kts 341°
2026-05-07 11:48 56.23068 -3.20285 37969 ft 456 kts 341°
2026-05-07 11:49 56.29170 -3.23399 37970 ft 456 kts 341°
2026-05-07 11:49 56.35244 -3.26510 37971 ft 456 kts 341°
2026-05-07 11:50 56.41334 -3.29634 37972 ft 456 kts 341°
2026-05-07 11:50 56.47425 -3.32768 37973 ft 456 kts 341°
2026-05-07 11:51 56.53500 -3.35905 37973 ft 456 kts 341°
2026-05-07 11:51 56.59595 -3.39062 37972 ft 456 kts 341°
2026-05-07 11:52 56.65672 -3.42223 37968 ft 457 kts 341°
2026-05-07 11:52 56.71804 -3.45422 37962 ft 457 kts 341°
2026-05-07 11:53 56.77878 -3.48615 37956 ft 457 kts 340°
2026-05-07 11:53 56.83986 -3.51848 37951 ft 457 kts 340°
2026-05-07 11:54 56.90033 -3.55031 37947 ft 457 kts 340°
2026-05-07 11:54 56.96152 -3.58257 37932 ft 456 kts 340°
2026-05-07 11:55 57.02231 -3.61476 37860 ft 456 kts 340°
2026-05-07 11:55 57.08321 -3.64716 37843 ft 456 kts 340°
2026-05-07 11:56 57.14419 -3.67972 37877 ft 454 kts 339°
2026-05-07 11:56 57.20495 -3.71231 37895 ft 458 kts 339°
2026-05-07 11:57 57.26637 -3.74540 37898 ft 463 kts 339°
2026-05-07 11:57 57.32800 -3.77869 37895 ft 467 kts 339°
2026-05-07 11:58 57.39043 -3.81251 37890 ft 470 kts 339°
2026-05-07 11:58 57.45295 -3.84648 37885 ft 465 kts 339°
2026-05-07 11:59 57.51443 -3.87995 37885 ft 458 kts 339°
2026-05-07 11:59 57.57508 -3.91320 37883 ft 457 kts 338°
2026-05-07 12:00 57.63597 -3.94669 37884 ft 457 kts 338°
2026-05-07 12:00 57.69545 -3.97937 37882 ft 435 kts 338°
2026-05-07 12:01 57.75320 -4.01135 37886 ft 432 kts 338°
2026-05-07 12:01 57.81051 -4.04326 37886 ft 432 kts 338°
2026-05-07 12:02 57.86800 -4.07531 37887 ft 433 kts 338°
2026-05-07 12:02 57.92583 -4.10764 37889 ft 432 kts 338°
2026-05-07 12:03 57.98333 -4.13992 37891 ft 433 kts 338°
2026-05-07 12:03 58.04064 -4.17220 37891 ft 433 kts 338°
2026-05-07 12:04 58.09809 -4.20464 37889 ft 433 kts 338°
2026-05-07 12:04 58.15567 -4.23725 37889 ft 433 kts 338°
2026-05-07 12:05 58.21289 -4.26976 37888 ft 433 kts 338°
2026-05-07 12:05 58.27046 -4.30259 37897 ft 433 kts 338°
2026-05-07 12:06 58.32819 -4.33564 37910 ft 436 kts 338°
2026-05-07 12:06 58.38643 -4.36910 37897 ft 440 kts 338°
2026-05-07 12:07 58.44459 -4.40260 37873 ft 441 kts 337°
2026-05-07 12:07 58.50310 -4.43642 37864 ft 441 kts 337°
2026-05-07 12:08 58.56173 -4.47044 37858 ft 442 kts 337°
2026-05-07 12:08 58.62029 -4.50454 37854 ft 442 kts 337°
2026-05-07 12:09 58.67899 -4.53883 37852 ft 442 kts 337°
2026-05-07 12:09 58.73747 -4.57312 37851 ft 442 kts 337°
2026-05-07 12:10 58.79607 -4.60760 37851 ft 442 kts 337°
2026-05-07 12:10 58.85449 -4.64210 37850 ft 442 kts 337°
2026-05-07 12:11 58.91297 -4.67679 37849 ft 442 kts 336°
2026-05-07 12:11 58.97161 -4.71149 37847 ft 442 kts 336°
2026-05-07 12:12 59.03014 -4.74650 37846 ft 442 kts 336°
2026-05-07 12:12 59.08898 -4.78179 37847 ft 442 kts 336°
2026-05-07 12:13 59.14713 -4.81685 37846 ft 442 kts 336°
2026-05-07 12:13 59.20580 -4.85222 37846 ft 442 kts 336°
2026-05-07 12:14 59.26409 -4.88744 37848 ft 442 kts 336°
2026-05-07 12:14 59.32271 -4.92309 37848 ft 442 kts 337°
2026-05-07 12:15 59.38117 -4.95865 37848 ft 442 kts 336°
2026-05-07 12:15 59.43963 -4.99432 37849 ft 442 kts 336°
2026-05-07 12:16 59.49797 -5.03038 37850 ft 442 kts 336°
2026-05-07 12:16 59.55662 -5.06648 37852 ft 443 kts 336°
2026-05-07 12:17 59.61491 -5.10247 37851 ft 443 kts 336°
2026-05-07 12:17 59.67340 -5.13893 37853 ft 443 kts 336°
2026-05-07 12:18 59.73177 -5.17533 37854 ft 443 kts 337°
2026-05-07 12:18 59.79056 -5.21200 37853 ft 443 kts 337°
2026-05-07 12:19 59.84881 -5.24862 37852 ft 443 kts 338°
2026-05-07 12:19 59.90751 -5.28559 37852 ft 443 kts 338°
2026-05-07 12:20 59.96623 -5.32248 37854 ft 443 kts 337°
2026-05-07 12:20 60.02435 -5.35963 37846 ft 443 kts 337°
2026-05-07 12:21 60.08317 -5.39707 37821 ft 443 kts 337°
2026-05-07 12:21 60.14140 -5.43425 37827 ft 443 kts 337°
2026-05-07 12:22 60.19983 -5.47188 37847 ft 443 kts 337°
2026-05-07 12:22 60.25840 -5.50957 37853 ft 443 kts 337°
2026-05-07 12:23 60.31677 -5.54728 37855 ft 443 kts 337°
2026-05-07 12:23 60.37513 -5.58520 37854 ft 443 kts 337°
2026-05-07 12:24 60.43388 -5.62351 37855 ft 443 kts 337°
2026-05-07 12:24 60.49238 -5.66175 37549 ft 443 kts 336°
2026-05-07 12:24 60.52132 -5.68068 37161 ft 441 kts 336°
2026-05-07 12:25 60.55032 -5.69983 36660 ft 443 kts 336°
2026-05-07 12:25 60.57923 -5.71892 36114 ft 444 kts 336°
2026-05-07 12:25 60.60878 -5.73834 35614 ft 446 kts 336°
2026-05-07 12:25 60.63804 -5.75756 35123 ft 448 kts 336°
2026-05-07 12:26 60.66745 -5.77696 34563 ft 451 kts 335°
2026-05-07 12:26 60.69719 -5.79666 33939 ft 456 kts 335°
2026-05-07 12:26 60.72762 -5.81690 33224 ft 460 kts 335°
2026-05-07 12:26 60.75776 -5.83698 32504 ft 461 kts 334°
2026-05-07 12:27 60.78793 -5.85704 31815 ft 453 kts 334°
2026-05-07 12:27 60.81729 -5.87655 31180 ft 443 kts 333°
2026-05-07 12:27 60.84628 -5.89595 30509 ft 440 kts 333°
2026-05-07 12:27 60.87532 -5.91562 29811 ft 441 kts 333°
2026-05-07 12:28 60.90420 -5.93520 29125 ft 442 kts 333°
2026-05-07 12:28 60.93308 -5.95475 28451 ft 443 kts 333°
2026-05-07 12:28 60.96209 -5.97439 27748 ft 443 kts 332°
2026-05-07 12:28 60.99021 -5.99838 27138 ft 429 kts 324°
2026-05-07 12:29 61.01539 -6.02874 26623 ft 416 kts 317°
2026-05-07 12:29 61.03801 -6.06463 26020 ft 408 kts 312°
2026-05-07 12:29 61.05911 -6.10152 25456 ft 402 kts 311°
2026-05-07 12:29 61.08006 -6.13885 24922 ft 399 kts 311°
2026-05-07 12:30 61.10109 -6.17635 24388 ft 396 kts 311°
2026-05-07 12:30 61.12182 -6.21323 23856 ft 393 kts 311°
2026-05-07 12:30 61.14238 -6.24978 23341 ft 390 kts 311°
2026-05-07 12:30 61.16286 -6.28620 22836 ft 388 kts 312°
2026-05-07 12:31 61.18308 -6.32216 22337 ft 386 kts 312°
2026-05-07 12:31 61.20343 -6.35838 21834 ft 384 kts 312°
2026-05-07 12:31 61.22350 -6.39413 21336 ft 382 kts 312°
2026-05-07 12:31 61.24354 -6.42989 20836 ft 380 kts 313°
2026-05-07 12:32 61.26335 -6.46530 20337 ft 378 kts 313°
2026-05-07 12:32 61.28310 -6.50065 19838 ft 376 kts 313°
2026-05-07 12:32 61.30288 -6.53612 19334 ft 374 kts 313°
2026-05-07 12:32 61.32215 -6.57070 18845 ft 371 kts 314°
2026-05-07 12:33 61.36105 -6.64064 17854 ft 367 kts 314°
2026-05-07 12:33 61.38005 -6.67491 17365 ft 365 kts 313°
2026-05-07 12:33 61.39922 -6.70954 16869 ft 363 kts 314°
2026-05-07 12:34 61.41820 -6.74390 16375 ft 362 kts 314°
2026-05-07 12:34 61.43694 -6.77788 15887 ft 360 kts 314°
2026-05-07 12:34 61.45584 -6.81224 15389 ft 358 kts 314°
2026-05-07 12:34 61.47444 -6.84613 14899 ft 355 kts 314°
2026-05-07 12:35 61.49288 -6.87979 14408 ft 354 kts 314°
2026-05-07 12:35 61.51136 -6.91353 13915 ft 351 kts 315°
2026-05-07 12:35 61.52955 -6.94682 13421 ft 349 kts 315°
2026-05-07 12:35 61.54773 -6.98017 12929 ft 348 kts 315°
2026-05-07 12:36 61.56571 -7.01315 12441 ft 347 kts 315°
2026-05-07 12:36 61.58398 -7.04660 11944 ft 347 kts 315°
2026-05-07 12:36 61.60280 -7.07747 11599 ft 341 kts 322°
2026-05-07 12:36 61.62287 -7.10330 11214 ft 339 kts 329°
2026-05-07 12:37 61.64362 -7.12568 10755 ft 338 kts 332°
2026-05-07 12:37 61.66487 -7.14759 10295 ft 336 kts 332°
2026-05-07 12:37 61.68546 -7.16839 10069 ft 326 kts 335°
2026-05-07 12:37 61.70616 -7.18518 9924 ft 312 kts 342°
2026-05-07 12:38 61.72659 -7.19671 9794 ft 302 kts 349°
2026-05-07 12:38 61.74738 -7.20358 9464 ft 301 kts 356°
2026-05-07 12:38 61.76792 -7.20566 9108 ft 298 kts
2026-05-07 12:38 61.78855 -7.20527 8748 ft 296 kts
2026-05-07 12:39 61.80910 -7.20449 8388 ft 294 kts
2026-05-07 12:39 61.82953 -7.20383 8031 ft 292 kts
2026-05-07 12:39 61.84975 -7.20336 7674 ft 289 kts
2026-05-07 12:39 61.86946 -7.20308 7325 ft 287 kts
2026-05-07 12:40 61.88952 -7.20275 6966 ft 285 kts
2026-05-07 12:40 61.90901 -7.20282 6619 ft 283 kts 360°
2026-05-07 12:40 61.92846 -7.20865 6273 ft 283 kts 348°
2026-05-07 12:40 61.94712 -7.22193 5935 ft 283 kts 337°
2026-05-07 12:41 61.96415 -7.24191 5605 ft 282 kts 326°
2026-05-07 12:41 61.97926 -7.26815 5271 ft 279 kts 314°
2026-05-07 12:41 61.99167 -7.29921 4925 ft 275 kts 303°
2026-05-07 12:41 62.00123 -7.33402 4598 ft 271 kts 292°
2026-05-07 12:42 62.00780 -7.37078 4335 ft 264 kts 285°
2026-05-07 12:42 62.01290 -7.40716 4301 ft 248 kts 284°
2026-05-07 12:42 62.01754 -7.44116 4275 ft 234 kts 285°
2026-05-07 12:42 62.02216 -7.47335 4254 ft 224 kts 290°
2026-05-07 12:43 62.02874 -7.50204 4298 ft 203 kts 304°
2026-05-07 12:43 62.03717 -7.52487 4231 ft 195 kts 319°
2026-05-07 12:43 62.04738 -7.54319 4110 ft 190 kts 333°
2026-05-07 12:43 62.05876 -7.55629 4005 ft 184 kts 346°
2026-05-07 12:44 62.07084 -7.56240 3927 ft 175 kts
2026-05-07 12:44 62.08232 -7.55915 3651 ft 161 kts 29°
2026-05-07 12:44 62.09182 -7.54842 3393 ft 150 kts 48°
2026-05-07 12:44 62.09873 -7.53296 3165 ft 141 kts 63°
2026-05-07 12:45 62.10300 -7.51472 2932 ft 130 kts 77°
2026-05-07 12:45 62.10463 -7.49681 2658 ft 118 kts 89°
2026-05-07 12:45 62.10408 -7.47965 2456 ft 117 kts 101°
2026-05-07 12:45 62.10160 -7.46310 2266 ft 118 kts 108°
2026-05-07 12:46 62.09854 -7.44701 2078 ft 117 kts 110°
2026-05-07 12:46 62.09543 -7.43096 1883 ft 116 kts 111°
2026-05-07 12:46 62.09230 -7.41518 1710 ft 115 kts 109°
2026-05-07 12:46 62.08928 -7.39932 1581 ft 115 kts 107°
2026-05-07 12:47 62.08625 -7.38345 1469 ft 115 kts 107°
2026-05-07 12:47 62.08349 -7.36751 1295 ft 115 kts 105°
2026-05-07 12:47 62.08096 -7.35146 1081 ft 114 kts 104°
2026-05-07 12:47 62.07803 -7.33577 878 ft 115 kts 111°
2026-05-07 12:48 62.07429 -7.32090 694 ft 114 kts 112°
2026-05-07 12:48 62.07067 -7.30600 496 ft 113 kts 112°
2026-05-07 12:48 62.06704 -7.29127 319 ft 113 kts 112°
2026-05-07 12:48 62.06387 -7.27824 299 ft 77 kts 117°
2026-05-07 12:49 62.06217 -7.27133 285 ft 22 kts 115°
2026-05-07 12:49 62.06193 -7.27055 282 ft 1 kts 258°
2026-05-07 12:49 62.06211 -7.27122 284 ft 7 kts 299°
2026-05-07 12:49 62.06245 -7.27254 287 ft 12 kts 299°
2026-05-07 12:50 62.06292 -7.27440 292 ft 15 kts 299°
2026-05-07 12:50 62.06350 -7.27669 297 ft 19 kts 299°
2026-05-07 12:50 62.06416 -7.27948 298 ft 21 kts 296°
2026-05-07 12:50 62.06466 -7.28134 296 ft 5 kts 323°
2026-05-07 12:51 62.06514 -7.28128 294 ft 8 kts 17°
2026-05-07 12:51 62.06571 -7.28089 293 ft 8 kts
2026-05-07 12:51 62.06625 -7.28089 293 ft 5 kts 358°
2026-05-07 12:51 62.06648 -7.28036 293 ft 5 kts 85°
2026-05-07 12:52 62.06641 -7.27953 293 ft 5 kts 108°
2026-05-07 12:52 62.06646 -7.27897 293 ft 3 kts 38°
2026-05-07 12:52 62.06664 -7.27876 293 ft 2 kts 28°
2026-05-07 12:52 62.06674 -7.27865 293 ft 0 kts 28°